Weather in San Sebastian

Spain     43°19′09″N   1°58′58″W
temp.,
°C
wind,
m/s
gust,
m/s
humid.,
%
clouds,
%
prec.,
mm/h
press.,
hPa
HPBL,
m
5 august, thu
thu523:00+15ssw119742 0.2 102024
02:00+15s229548 0.2 101840
05:00+14s21965 0.0 101719
08:00+15sse229428 0.0 101643
11:00+22sse236536 0.0 1015475
14:00+27n234464 0.0 10131312
17:00+24n344668 0.0 1013751
20:00+20nnw367264 0.0 1015930
6 august, fri
fri623:00+17nw3695100 0.4 1016366
02:00+16wnw1396100 0.9 1016111
05:00+15wsw119667 0.3 101524
08:00+16n009439 0.5 101422
11:00+19nnw227521 0.2 1014812
14:00+20n327171 0.3 1013816
17:00+20n336769 0.0 1011938
20:00+18n237341 0.0 1010651
7 august, sat
sat723:00+15ene019175 0.0 100933
02:00+15sw019096 0.1 100935
05:00+15ssw018999 0.2 100843
08:00+16ssw1189100 0.3 100933
11:00+21wnw13580 0.0 10091021
14:00+22nnw445279 0.1 10111284
17:00+19nw456897 0.1 10131151
20:00+18wnw267610 0.3 1014903
8 august, sun
sun823:00+14wsw239381 0.1 101676
02:00+14w239467 0.7 1017101
05:00+14sw119449 0.5 101742
08:00+13s219574 0.8 101831
11:00+18wnw126868 0.1 1019784
14:00+21nnw325848 0.1 10191272
17:00+21n4359100 0.0 10181035
20:00+18nne2272100 0.0 1019660
9 august, mon
mon923:00+13s11938 0.0 102131
02:00+14sse118991 0.0 102146
05:00+14sse1191100 0.0 102113
08:00+14sse1188100 0.0 102132
11:00+17nne1177100 0.0 1022377
14:00+20nne1266100 0.0 1022742
17:00+21n3364100 0.0 1021784
20:00+18n2381100 0.0 1022249